Time,TemperatureF,DewpointF,PressureIn,WindDirection,WindDirectionDegrees,WindSpeedMPH,WindSpeedGustMPH,Humidity,HourlyPrecipIn,Conditions,Clouds,dailyrainin,SoftwareType,DateUTC
2013-10-19 00:12:00,50.5,39.0,29.77,SSW,213,0.0,-999.0,66,-99.99,,,0.00,weatherlink.com 1.10,2013-10-19 04:12:00,
2013-10-19 00:27:00,50.9,39.0,29.78,WSW,241,0.0,-999.0,65,-99.99,,,0.00,weatherlink.com 1.10,2013-10-19 04:27:00,
2013-10-19 00:42:00,50.8,40.0,29.78,SSW,203,0.0,-999.0,66,-99.99,,,0.00,weatherlink.com 1.10,2013-10-19 04:42:00,
2013-10-19 00:57:00,50.8,39.0,29.78,SW,236,0.0,-999.0,64,-99.99,,,0.00,weatherlink.com 1.10,2013-10-19 04:57:00,
2013-10-19 01:12:00,50.6,39.0,29.79,SSW,211,0.0,-999.0,65,-99.99,,,0.00,weatherlink.com 1.10,2013-10-19 05:12:00,
2013-10-19 01:27:00,50.0,39.0,29.79,SSW,209,0.0,-999.0,67,-99.99,,,0.00,weatherlink.com 1.10,2013-10-19 05:27:00,
2013-10-19 01:42:00,49.9,39.0,29.79,SW,220,0.0,-999.0,67,-99.99,,,0.00,weatherlink.com 1.10,2013-10-19 05:42:00,
2013-10-19 01:57:00,49.5,38.0,29.79,SW,220,0.0,-999.0,66,-99.99,,,0.00,weatherlink.com 1.10,2013-10-19 05:57:00,
2013-10-19 02:12:00,49.6,39.0,29.80,SW,220,0.0,-999.0,67,-99.99,,,0.00,weatherlink.com 1.10,2013-10-19 06:12:00,
2013-10-19 02:27:00,49.3,39.0,29.80,SW,223,0.0,-999.0,67,-99.99,,,0.00,weatherlink.com 1.10,2013-10-19 06:27:00,
2013-10-19 02:42:00,48.6,39.0,29.80,SW,225,0.0,-999.0,70,-99.99,,,0.00,weatherlink.com 1.10,2013-10-19 06:42:00,
2013-10-19 02:57:00,48.2,40.0,29.80,SW,224,0.0,-999.0,74,-99.99,,,0.00,weatherlink.com 1.10,2013-10-19 06:57:00,
2013-10-19 03:12:00,47.4,39.0,29.81,SW,223,0.0,-999.0,72,-99.99,,,0.00,weatherlink.com 1.10,2013-10-19 07:12:00,
2013-10-19 03:27:00,47.2,39.0,29.80,WSW,247,0.0,-999.0,73,-99.99,,,0.00,weatherlink.com 1.10,2013-10-19 07:27:00,
2013-10-19 03:42:00,46.7,39.0,29.81,WSW,247,0.0,-999.0,75,-99.99,,,0.00,weatherlink.com 1.10,2013-10-19 07:42:00,
2013-10-19 03:57:00,45.7,39.0,29.81,WSW,247,0.0,-999.0,78,-99.99,,,0.00,weatherlink.com 1.10,2013-10-19 07:57:00,
2013-10-19 04:12:00,44.3,39.0,29.80,WSW,247,0.0,-999.0,81,-99.99,,,0.00,weatherlink.com 1.10,2013-10-19 08:12:00,
2013-10-19 04:27:00,42.9,38.0,29.80,WSW,247,0.0,-999.0,84,-99.99,,,0.00,weatherlink.com 1.10,2013-10-19 08:27:00,
2013-10-19 04:42:00,42.1,38.0,29.80,WSW,247,0.0,-999.0,84,-99.99,,,0.00,weatherlink.com 1.10,2013-10-19 08:42:00,
2013-10-19 04:57:00,42.7,39.0,29.81,WSW,247,0.0,-999.0,85,-99.99,,,0.00,weatherlink.com 1.10,2013-10-19 08:57:00,
2013-10-19 05:12:00,42.5,39.0,29.82,WSW,247,0.0,-999.0,86,-99.99,,,0.00,weatherlink.com 1.10,2013-10-19 09:12:00,
2013-10-19 05:27:00,42.3,39.0,29.83,WSW,246,0.0,-999.0,87,-99.99,,,0.00,weatherlink.com 1.10,2013-10-19 09:27:00,
2013-10-19 05:42:00,42.0,38.0,29.82,WSW,247,0.0,-999.0,87,-99.99,,,0.00,weatherlink.com 1.10,2013-10-19 09:42:00,
2013-10-19 05:57:00,40.9,37.0,29.83,WSW,247,0.0,-999.0,87,-99.99,,,0.00,weatherlink.com 1.10,2013-10-19 09:57:00,
2013-10-19 06:12:00,40.0,37.0,29.83,WSW,247,0.0,-999.0,89,-99.99,,,0.00,weatherlink.com 1.10,2013-10-19 10:12:00,
2013-10-19 06:27:00,40.1,38.0,29.84,WSW,247,0.0,-999.0,91,-99.99,,,0.00,weatherlink.com 1.10,2013-10-19 10:27:00,
2013-10-19 06:42:00,40.1,38.0,29.84,WSW,247,0.0,-999.0,91,-99.99,,,0.00,weatherlink.com 1.10,2013-10-19 10:42:00,
2013-10-19 06:57:00,39.6,38.0,29.84,WSW,247,0.0,-999.0,92,-99.99,,,0.00,weatherlink.com 1.10,2013-10-19 10:57:00,
2013-10-19 07:12:00,39.7,38.0,29.84,WSW,246,0.0,-999.0,92,-99.99,,,0.00,weatherlink.com 1.10,2013-10-19 11:12:00,
2013-10-19 07:27:00,39.8,38.0,29.84,WSW,247,0.0,-999.0,92,-99.99,,,0.00,weatherlink.com 1.10,2013-10-19 11:27:00,
2013-10-19 07:42:00,40.6,39.0,29.83,WSW,247,0.0,-999.0,92,-99.99,,,0.00,weatherlink.com 1.10,2013-10-19 11:42:00,
2013-10-19 07:57:00,41.6,40.0,29.84,WSW,246,0.0,-999.0,93,-99.99,,,0.00,weatherlink.com 1.10,2013-10-19 11:57:00,
2013-10-19 08:12:00,43.1,41.0,29.84,SW,232,0.0,-999.0,91,-99.99,,,0.00,weatherlink.com 1.10,2013-10-19 12:12:00,
2013-10-19 08:27:00,44.9,41.0,29.84,SW,220,0.0,-999.0,87,-99.99,,,0.00,weatherlink.com 1.10,2013-10-19 12:27:00,
2013-10-19 08:42:00,46.2,42.0,29.84,SW,219,0.0,-999.0,85,-99.99,,,0.00,weatherlink.com 1.10,2013-10-19 12:42:00,
2013-10-19 08:57:00,48.7,43.0,29.85,South,181,0.0,-999.0,80,-99.99,,,0.00,weatherlink.com 1.10,2013-10-19 12:57:00,
2013-10-19 09:12:00,51.2,44.0,29.84,SSW,192,0.0,-999.0,77,-99.99,,,0.00,weatherlink.com 1.10,2013-10-19 13:12:00,
2013-10-19 09:27:00,53.5,45.0,29.84,SSW,209,0.0,-999.0,73,-99.99,,,0.00,weatherlink.com 1.10,2013-10-19 13:27:00,
2013-10-19 09:42:00,55.0,45.0,29.84,SSW,200,0.0,-999.0,70,-99.99,,,0.00,weatherlink.com 1.10,2013-10-19 13:42:00,
2013-10-19 09:57:00,56.5,45.0,29.84,WSW,248,0.0,-999.0,66,-99.99,,,0.00,weatherlink.com 1.10,2013-10-19 13:57:00,
2013-10-19 10:13:00,57.4,45.0,29.84,SW,218,0.0,-999.0,64,-99.99,,,0.00,weatherlink.com 1.10,2013-10-19 14:13:00,
2013-10-19 10:27:00,58.5,45.0,29.84,SW,233,0.0,-999.0,62,-99.99,,,0.00,weatherlink.com 1.10,2013-10-19 14:27:00,
2013-10-19 10:42:00,59.6,47.0,29.84,WSW,238,0.0,-999.0,63,-99.99,,,0.00,weatherlink.com 1.10,2013-10-19 14:42:00,
2013-10-19 10:57:00,60.7,46.0,29.84,NW,308,0.0,-999.0,59,-99.99,,,0.00,weatherlink.com 1.10,2013-10-19 14:57:00,
2013-10-19 11:12:00,61.8,46.0,29.83,WSW,245,0.0,-999.0,57,-99.99,,,0.00,weatherlink.com 1.10,2013-10-19 15:12:00,
2013-10-19 11:27:00,62.0,45.0,29.83,SSW,213,0.0,-999.0,54,-99.99,,,0.00,weatherlink.com 1.10,2013-10-19 15:27:00,
2013-10-19 11:42:00,62.8,45.0,29.83,ENE,71,0.0,-999.0,53,-99.99,,,0.00,weatherlink.com 1.10,2013-10-19 15:42:00,
2013-10-19 11:57:00,63.4,45.0,29.82,WSW,240,0.0,-999.0,52,-99.99,,,0.00,weatherlink.com 1.10,2013-10-19 15:57:00,
2013-10-19 12:12:00,64.1,45.0,29.81,WNW,288,0.0,-999.0,50,-99.99,,,0.00,weatherlink.com 1.10,2013-10-19 16:12:00,
2013-10-19 12:27:00,64.6,45.0,29.81,West,267,0.0,-999.0,49,-99.99,,,0.00,weatherlink.com 1.10,2013-10-19 16:27:00,
2013-10-19 12:42:00,65.0,46.0,29.80,North,360,0.0,-999.0,50,-99.99,,,0.00,weatherlink.com 1.10,2013-10-19 16:42:00,
2013-10-19 12:57:00,65.4,44.0,29.79,SSE,155,0.0,-999.0,46,-99.99,,,0.00,weatherlink.com 1.10,2013-10-19 16:57:00,
2013-10-19 13:12:00,65.7,46.0,29.78,ESE,119,0.0,-999.0,49,-99.99,,,0.00,weatherlink.com 1.10,2013-10-19 17:12:00,
2013-10-19 13:27:00,66.0,44.0,29.77,North,360,0.0,-999.0,45,-99.99,,,0.00,weatherlink.com 1.10,2013-10-19 17:27:00,
2013-10-19 13:42:00,66.3,45.0,29.77,SSW,200,0.0,-999.0,47,-99.99,,,0.00,weatherlink.com 1.10,2013-10-19 17:42:00,
2013-10-19 13:57:00,66.7,45.0,29.76,SSE,161,0.0,-999.0,45,-99.99,,,0.00,weatherlink.com 1.10,2013-10-19 17:57:00,
2013-10-19 14:12:00,66.6,44.0,29.76,WSW,250,0.0,-999.0,45,-99.99,,,0.00,weatherlink.com 1.10,2013-10-19 18:12:00,
2013-10-19 14:27:00,66.6,44.0,29.76,West,274,0.0,-999.0,44,-99.99,,,0.00,weatherlink.com 1.10,2013-10-19 18:27:00,
2013-10-19 14:42:00,66.7,47.0,29.76,SW,232,0.0,-999.0,49,-99.99,,,0.00,weatherlink.com 1.10,2013-10-19 18:42:00,
2013-10-19 14:57:00,66.7,46.0,29.75,North,360,0.0,-999.0,47,-99.99,,,0.00,weatherlink.com 1.10,2013-10-19 18:57:00,
2013-10-19 15:12:00,66.7,45.0,29.75,North,360,0.0,-999.0,45,-99.99,,,0.00,weatherlink.com 1.10,2013-10-19 19:12:00,
2013-10-19 15:27:00,65.9,45.0,29.75,ESE,110,0.0,-999.0,47,-99.99,,,0.00,weatherlink.com 1.10,2013-10-19 19:27:00,
2013-10-19 15:42:00,64.5,46.0,29.74,WSW,255,3.0,-999.0,52,-99.99,,,0.00,weatherlink.com 1.10,2013-10-19 19:42:00,
2013-10-19 15:57:00,63.5,46.0,29.73,ESE,107,0.0,-999.0,54,-99.99,,,0.00,weatherlink.com 1.10,2013-10-19 19:57:00,
2013-10-19 16:12:00,62.7,47.0,29.73,West,273,3.0,-999.0,56,-99.99,,,0.00,weatherlink.com 1.10,2013-10-19 20:12:00,
2013-10-19 16:27:00,62.1,46.0,29.73,East,94,4.0,-999.0,57,-99.99,,,0.00,weatherlink.com 1.10,2013-10-19 20:27:00,
2013-10-19 16:42:00,61.5,48.0,29.73,South,173,0.0,-999.0,61,-99.99,,,0.00,weatherlink.com 1.10,2013-10-19 20:42:00,
2013-10-19 16:57:00,60.8,47.0,29.73,SSE,148,0.0,-999.0,61,-99.99,,,0.00,weatherlink.com 1.10,2013-10-19 20:57:00,
2013-10-19 17:12:00,60.2,48.0,29.73,SW,232,3.0,-999.0,64,-99.99,,,0.00,weatherlink.com 1.10,2013-10-19 21:12:00,
2013-10-19 17:27:00,59.9,48.0,29.73,SW,235,0.0,-999.0,64,-99.99,,,0.00,weatherlink.com 1.10,2013-10-19 21:27:00,
2013-10-19 17:42:00,59.4,47.0,29.72,WSW,247,1.0,-999.0,64,-99.99,,,0.00,weatherlink.com 1.10,2013-10-19 21:42:00,
2013-10-19 17:57:00,59.4,46.0,29.73,WSW,244,0.0,-999.0,62,-99.99,,,0.00,weatherlink.com 1.10,2013-10-19 21:57:00,
2013-10-19 18:12:00,59.4,46.0,29.72,SSW,211,0.0,-999.0,61,-99.99,,,0.00,weatherlink.com 1.10,2013-10-19 22:12:00,
2013-10-19 18:27:00,59.3,46.0,29.71,SSW,194,0.0,-999.0,61,-99.99,,,0.00,weatherlink.com 1.10,2013-10-19 22:27:00,
2013-10-19 18:42:00,58.8,45.0,29.71,SW,229,0.0,-999.0,61,-99.99,,,0.00,weatherlink.com 1.10,2013-10-19 22:42:00,
2013-10-19 18:57:00,58.4,46.0,29.71,SW,225,0.0,-999.0,63,-99.99,,,0.00,weatherlink.com 1.10,2013-10-19 22:57:00,
2013-10-19 19:12:00,58.0,47.0,29.70,SSW,211,0.0,-999.0,66,-99.99,,,0.00,weatherlink.com 1.10,2013-10-19 23:12:00,
2013-10-19 19:27:00,58.2,46.0,29.71,SW,226,0.0,-999.0,65,-99.99,,,0.00,weatherlink.com 1.10,2013-10-19 23:27:00,
2013-10-19 19:42:00,58.1,47.0,29.70,SW,222,0.0,-999.0,66,-99.99,,,0.00,weatherlink.com 1.10,2013-10-19 23:42:00,
2013-10-19 19:57:00,57.9,47.0,29.68,WSW,246,0.0,-999.0,67,-99.99,,,0.00,weatherlink.com 1.10,2013-10-19 23:57:00,
2013-10-19 20:12:00,57.4,47.0,29.69,SSE,155,0.0,-999.0,69,-99.99,,,0.00,weatherlink.com 1.10,2013-10-20 00:12:00,
2013-10-19 20:27:00,57.2,47.0,29.69,WSW,244,0.0,-999.0,69,-99.99,,,0.00,weatherlink.com 1.10,2013-10-20 00:27:00,
2013-10-19 20:42:00,57.0,47.0,29.69,South,182,0.0,-999.0,69,-99.99,,,0.00,weatherlink.com 1.10,2013-10-20 00:42:00,
2013-10-19 20:57:00,57.3,47.0,29.69,SW,221,0.0,-999.0,69,-99.99,,,0.00,weatherlink.com 1.10,2013-10-20 00:57:00,
2013-10-19 21:12:00,57.3,47.0,29.68,SW,221,0.0,-999.0,69,-99.99,,,0.00,weatherlink.com 1.10,2013-10-20 01:12:00,
2013-10-19 21:27:00,56.7,49.0,29.67,SE,136,0.0,-999.0,75,-99.99,,,0.00,weatherlink.com 1.10,2013-10-20 01:27:00,
2013-10-19 21:42:00,56.0,49.0,29.66,ESE,115,0.0,-999.0,77,-99.99,,,0.00,weatherlink.com 1.10,2013-10-20 01:42:00,
2013-10-19 21:57:00,55.8,49.0,29.67,WNW,298,0.0,-999.0,78,-99.99,,,0.00,weatherlink.com 1.10,2013-10-20 01:57:00,
2013-10-19 22:12:00,56.2,49.0,29.66,SW,227,0.0,-999.0,77,-99.99,,,0.00,weatherlink.com 1.10,2013-10-20 02:12:00,
2013-10-19 22:27:00,56.4,49.0,29.67,WNW,282,0.0,-999.0,77,-99.99,,,0.00,weatherlink.com 1.10,2013-10-20 02:27:00,
2013-10-19 22:42:00,56.6,49.0,29.66,West,261,0.0,-999.0,76,-99.99,,,0.00,weatherlink.com 1.10,2013-10-20 02:42:00,
2013-10-19 22:57:00,56.3,49.0,29.66,SSE,150,2.0,-999.0,77,-99.99,,,0.00,weatherlink.com 1.10,2013-10-20 02:57:00,
2013-10-19 23:12:00,56.5,49.0,29.65,South,191,0.0,-999.0,76,-99.99,,,0.00,weatherlink.com 1.10,2013-10-20 03:12:00,
2013-10-19 23:27:00,56.4,49.0,29.65,West,263,0.0,-999.0,75,-99.99,,,0.00,weatherlink.com 1.10,2013-10-20 03:27:00,
2013-10-19 23:42:00,56.2,49.0,29.64,ESE,118,0.0,-999.0,76,-99.99,,,0.00,weatherlink.com 1.10,2013-10-20 03:42:00,
2013-10-19 23:57:00,56.1,48.0,29.64,ENE,71,0.0,-999.0,75,-99.99,,,0.00,weatherlink.com 1.10,2013-10-20 03:57:00,